sat.trackr.live / text

‹ back to catalog

DIRECTV 5 (TEMPO 1)

NORAD 27426 · 2002-023A

PAYLOAD ACTIVE UNKNOWN

§ Identity

Operator
Country
US
Launch date
2002-05-07
Launch site
TYMSC
Launch vehicle
Mass (kg)
RCS (m²)
12.59

Purposes: comms

External: N2YO · Heavens-Above · Gunter

§ Orbital elements

Epoch: 2026-09-19T04:29:26.937312Z

Period
1,436.09 min
Inclination
5.1114°
Eccentricity
0.0003162
Mean motion
1.00272066 rev/d
Perigee alt
35,773.2 km
Apogee alt
35,799.8 km
Semi-major
42,164.7 km
B*
0.0000e+0
RAAN
74.0904°
Arg perigee
103.9985°
Mean anomaly
137.2836°
Rev number
8,906

§ Raw data

DIRECTV 5 (TEMPO 1)1 27426U 02023A   26262.18711733 -.00000061  00000+0  00000+0 0  99932 27426   5.1114  74.0904 0003162 103.9985 137.2836  1.00272066 89063

JSON: /api/v1/satellites/27426 · /tle

For live sub-satellite position, see the globe view (requires WebGL).

§ Visibility from observer

Set your observer location to see the next 7 days of passes ≥ 10°. The values pass through the URL so the page stays shareable.

No JS? Fill the form by hand. The geolocation button needs JavaScript.